Satellite: NOAA-11
Catalog number: 19531
Epoch time: 12284.75911884
Element set: 0087
Inclination: 098.7265 deg
RA of node: 007.4594 deg
Eccentricity: 0.0010335
Arg of perigee: 254.7583 deg
Mean anomaly: 105.2435 deg
Mean motion: 14.14984371 rev/day
Decay rate: -3.3e-07 rev/day^2
Epoch rev: 24085
Checksum: 307
Satellite: NOAA-12
Catalog number: 21263
Epoch time: 12284.93101220
Element set: 0583
Inclination: 098.7235 deg
RA of node: 306.0210 deg
Eccentricity: 0.0013091
Arg of perigee: 222.6387 deg
Mean anomaly: 137.3778 deg
Mean motion: 14.25522129 rev/day
Decay rate: 1.0e-07 rev/day^2
Epoch rev: 11304
Checksum: 248
Satellite: MET-3/5
Catalog number: 21655
Epoch time: 12284.46828282
Element set: 0001
Inclination: 082.5552 deg
RA of node: 070.7356 deg
Eccentricity: 0.0013758
Arg of perigee: 039.0126 deg
Mean anomaly: 321.1986 deg
Mean motion: 13.17043161 rev/day
Decay rate: -2.80e-06 rev/day^2
Epoch rev: 01682
Checksum: 280
Satellite: MET-2/21
Catalog number: 22782
Epoch time: 12284.63757766
Element set: 0551
Inclination: 082.5464 deg
RA of node: 300.9135 deg
Eccentricity: 0.0022237
Arg of perigee: 184.9351 deg
Mean anomaly: 175.1584 deg
Mean motion: 13.83688915 rev/day
Decay rate: -4.0e-08 rev/day^2
Epoch rev: 96513
Checksum: 322
Satellite: OKEAN-4
Catalog number: 23317
Epoch time: 12285.82373246
Element set: 23
Inclination: 082.5359 deg
RA of node: 282.1426 deg
Eccentricity: 0.0020830
Arg of perigee: 332.1957 deg
Mean anomaly: 027.8149 deg
Mean motion: 14.83996732 rev/day
Decay rate: 1.128e-05 rev/day^2
Epoch rev: 97210
Checksum: 301
Satellite: NOAA-14
Catalog number: 23455
Epoch time: 12284.82151776
Element set: 0056
Inclination: 098.8231 deg
RA of node: 006.8347 deg
Eccentricity: 0.0009625
Arg of perigee: 352.8155 deg
Mean anomaly: 007.2877 deg
Mean motion: 14.13874754 rev/day
Decay rate: -6.0e-08 rev/day^2
Epoch rev: 91713
Checksum: 314
Satellite: NOAA-15
Catalog number: 25338
Epoch time: 12284.62244900
Element set: 0435
Inclination: 098.7025 deg
RA of node: 270.5120 deg
Eccentricity: 0.0011276
Arg of perigee: 129.2553 deg
Mean anomaly: 230.9618 deg
Mean motion: 14.25128989 rev/day
Decay rate: 2.31e-06 rev/day^2
Epoch rev: 74929
Checksum: 300
Satellite: RESURS
Catalog number: 25394
Epoch time: 12284.96363867
Element set: 0207
Inclination: 098.3316 deg
RA of node: 267.1749 deg
Eccentricity: 0.0000445
Arg of perigee: 297.8881 deg
Mean anomaly: 062.2253 deg
Mean motion: 14.24300473 rev/day
Decay rate: 4.7e-07 rev/day^2
Epoch rev: 74088
Checksum: 315
Satellite: FENGYUN1
Catalog number: 25730
Epoch time: 12284.90642181
Element set: 0727
Inclination: 098.8535 deg
RA of node: 241.9363 deg
Eccentricity: 0.0021448
Arg of perigee: 030.7298 deg
Mean anomaly: 329.5112 deg
Mean motion: 14.09773193 rev/day
Decay rate: 8.8e-07 rev/day^2
Epoch rev: 69091
Checksum: 314
Satellite: OKEAN-0
Catalog number: 25860
Epoch time: 12284.91338214
Element set: 757
Inclination: 097.9524 deg
RA of node: 245.2909 deg
Eccentricity: 0.0000634
Arg of perigee: 094.2784 deg
Mean anomaly: 265.8497 deg
Mean motion: 14.74332940 rev/day
Decay rate: 5.40e-06 rev/day^2
Epoch rev: 71162
Checksum: 316
Satellite: NOAA-16
Catalog number: 26536
Epoch time: 12284.61908938
Element set: 0926
Inclination: 099.0818 deg
RA of node: 328.4534 deg
Eccentricity: 0.0011393
Arg of perigee: 117.9317 deg
Mean anomaly: 242.3025 deg
Mean motion: 14.12789759 rev/day
Decay rate: 2.08e-06 rev/day^2
Epoch rev: 62133
Checksum: 323
Satellite: NOAA-17
Catalog number: 27453
Epoch time: 12284.78105128
Element set: 0869
Inclination: 098.3307 deg
RA of node: 305.9411 deg
Eccentricity: 0.0011910
Arg of perigee: 172.9359 deg
Mean anomaly: 187.1960 deg
Mean motion: 14.24491228 rev/day
Decay rate: 6.2e-07 rev/day^2
Epoch rev: 53521
Checksum: 306
Satellite: NOAA-18
Catalog number: 28654
Epoch time: 12284.66529438
Element set: 0350
Inclination: 099.0615 deg
RA of node: 243.7975 deg
Eccentricity: 0.0014025
Arg of perigee: 186.8758 deg
Mean anomaly: 173.2210 deg
Mean motion: 14.11711721 rev/day
Decay rate: 3.78e-06 rev/day^2
Epoch rev: 38085
Checksum: 318
Satellite: NOAA-19
Catalog number: 33591
Epoch time: 12284.69919545
Element set: 0538
Inclination: 098.8731 deg
RA of node: 223.1024 deg
Eccentricity: 0.0015050
Arg of perigee: 056.0809 deg
Mean anomaly: 304.1784 deg
Mean motion: 14.11396075 rev/day
Decay rate: 2.2e-07 rev/day^2
Epoch rev: 18930
Checksum: 301
/EX
SB KEPS @ AMSAT $ORB12285.M
Orbital Elements 12285.MISC
HR AMSAT ORBITAL ELEMENTS FOR MANNED AND MISCELLANEOUS SATELLITES
FROM WA5QGD FORT WORTH,TX October 11, 2012
Send SUBSCRIBE KEPS/UNSUBSCRIBE KEPS to majordomo at amsat.org only
BID: ORB12285.M
TO ALL RADIO AMATEURS BT
Satellite: HUBBLE
Catalog number: 20580
Epoch time: 12284.95396560
Element set: 86
Inclination: 028.4694 deg
RA of node: 105.7673 deg
Eccentricity: 0.0003248
Arg of perigee: 206.4993 deg
Mean anomaly: 153.5499 deg
Mean motion: 15.02877865 rev/day
Decay rate: 1.913e-05 rev/day^2
Epoch rev: 3216
Checksum: 320
Satellite: ISS
Catalog number: 25544
Epoch time: 12285.86180905
Element set: 451
Inclination: 051.6476 deg
RA of node: 261.6894 deg
Eccentricity: 0.0017769
Arg of perigee: 155.8664 deg
Mean anomaly: 287.0425 deg
Mean motion: 15.50690175 rev/day
Decay rate: 1.7083e-04 rev/day^2
Epoch rev: 79614
Checksum: 335
Satellite: CO-58
Catalog number: 28895
Epoch time: 12285.80871761
Element set: 299
Inclination: 097.8982 deg
RA of node: 146.8563 deg
Eccentricity: 0.0018605
Arg of perigee: 141.0210 deg
Mean anomaly: 219.2346 deg
Mean motion: 14.60781092 rev/day
Decay rate: 6.97e-06 rev/day^2
Epoch rev: 37068
Checksum: 347
Satellite: FALCON
Catalog number: 30776
Epoch time: 12284.45950629
Element set: 456
Inclination: 035.4331 deg
RA of node: 292.3339 deg
Eccentricity: 0.0002642
Arg of perigee: 282.3180 deg
Mean anomaly: 077.7241 deg
Mean motion: 15.08431906 rev/day
Decay rate: 4.615e-05 rev/day^2
Epoch rev: 30766
Checksum: 294
Satellite: MAST
Catalog number: 31126
Epoch time: 12285.57419685
Element set: 579
Inclination: 097.8758 deg
RA of node: 289.8825 deg
Eccentricity: 0.0094656
Arg of perigee: 107.6566 deg
Mean anomaly: 253.4991 deg
Mean motion: 14.54279985 rev/day
Decay rate: 5.20e-06 rev/day^2
Epoch rev: 29118
Checksum: 368
Satellite: CAPE1
Catalog number: 31130
Epoch time: 12285.70616127
Element set: 589
Inclination: 097.8874 deg
RA of node: 286.3365 deg
Eccentricity: 0.0102237
Arg of perigee: 121.0660 deg
Mean anomaly: 240.0599 deg
Mean motion: 14.53097592 rev/day
Decay rate: 5.22e-06 rev/day^2
Epoch rev: 29069
Checksum: 304
Satellite: COMPASS
Catalog number: 32787
Epoch time: 12284.68962657
Element set: 0434
Inclination: 097.7885 deg
RA of node: 343.4184 deg
Eccentricity: 0.0015926
Arg of perigee: 046.2792 deg
Mean anomaly: 313.9716 deg
Mean motion: 14.84449008 rev/day
Decay rate: 2.357e-05 rev/day^2
Epoch rev: 24094
Checksum: 344
Satellite: AAUSAT2
Catalog number: 32788
Epoch time: 12284.76768667
Element set: 0426
Inclination: 097.7868 deg
RA of node: 343.9424 deg
Eccentricity: 0.0015556
Arg of perigee: 048.5144 deg
Mean anomaly: 311.7406 deg
Mean motion: 14.84806935 rev/day
Decay rate: 2.098e-05 rev/day^2
Epoch rev: 24098
Checksum: 354
Satellite: DO-64
Catalog number: 32789
Epoch time: 12284.89009309
Element set: 0443
Inclination: 097.8015 deg
RA of node: 346.5546 deg
Eccentricity: 0.0015047
Arg of perigee: 041.8360 deg
Mean anomaly: 318.3976 deg
Mean motion: 14.86617205 rev/day
Decay rate: 4.529e-05 rev/day^2
Epoch rev: 24106
Checksum: 326
Satellite: CO-66
Catalog number: 32791
Epoch time: 12284.72749741
Element set: 0423
Inclination: 097.7868 deg
RA of node: 343.0983 deg
Eccentricity: 0.0016352
Arg of perigee: 047.3332 deg
Mean anomaly: 312.9283 deg
Mean motion: 14.83784104 rev/day
Decay rate: 1.893e-05 rev/day^2
Epoch rev: 24087
Checksum: 334
Satellite: RS-30
Catalog number: 32953
Epoch time: 12285.83658584
Element set: 222
Inclination: 082.5018 deg
RA of node: 222.5909 deg
Eccentricity: 0.0020356
Arg of perigee: 054.3672 deg
Mean anomaly: 305.9304 deg
Mean motion: 12.43028389 rev/day
Decay rate: 1.0e-07 rev/day^2
Epoch rev: 19905
Checksum: 292
Satellite: PHARMSAT
Catalog number: 35002
Epoch time: 12226.86484473
Element set: 78
Inclination: 040.4341 deg
RA of node: 050.6671 deg
Eccentricity: 0.0012079
Arg of perigee: 300.9773 deg
Mean anomaly: 059.0492 deg
Mean motion: 16.39309245 rev/day
Decay rate: 7.728342e-02 rev/day^2
Epoch rev: 18355
Checksum: 302
Satellite: METEOR-M
Catalog number: 35865
Epoch time: 12285.75204511
Element set: 860
Inclination: 098.6401 deg
RA of node: 337.8104 deg
Eccentricity: 0.0003372
Arg of perigee: 076.1729 deg
Mean anomaly: 283.9816 deg
Mean motion: 14.21871105 rev/day
Decay rate: -7.1e-07 rev/day^2
Epoch rev: 15916
Checksum: 294
Satellite: RS-38
Catalog number: 35869
Epoch time: 12285.75559471
Element set: 844
Inclination: 098.6356 deg
RA of node: 337.7895 deg
Eccentricity: 0.0005601
Arg of perigee: 076.7746 deg
Mean anomaly: 283.4003 deg
Mean motion: 14.22091646 rev/day
Decay rate: -1.3e-07 rev/day^2
Epoch rev: 15918
Checksum: 342
Satellite: JUGNU
Catalog number: 37839
Epoch time: 12285.62658424
Element set: 245
Inclination: 019.9595 deg
RA of node: 012.7939 deg
Eccentricity: 0.0018869
Arg of perigee: 066.4963 deg
Mean anomaly: 293.7475 deg
Mean motion: 14.12088381 rev/day
Decay rate: 6.20e-06 rev/day^2
Epoch rev: 5172
Checksum: 336
Satellite: SRMSAT
Catalog number: 37841
Epoch time: 12285.62740874
Element set: 247
Inclination: 019.9689 deg
RA of node: 019.9417 deg
Eccentricity: 0.0012067
Arg of perigee: 028.2135 deg
Mean anomaly: 331.9040 deg
Mean motion: 14.10170178 rev/day
Decay rate: 2.64e-06 rev/day^2
Epoch rev: 5164
Checksum: 289
